Weather History for KLVM - March, 2013

Change the Weather History Date:

Friday, March 15, 2013

  Actual Average Record
Temperature  
Mean Temperature 50 °F 36 °F  
Max Temperature 60 °F 48 °F 72 °F (1994)
Min Temperature 39 °F 24 °F -7 °F (1997)
Degree Days  
Heating Degree Days 15 29  
Month to date heating degree days 468  
Since 1 July heating degree days 5816  
Cooling Degree Days 0 0  
Month to date cooling degree days 0  
Year to date cooling degree days 0  
Moisture  
Dew Point 22 °F    
Average Humidity 32    
Maximum Humidity 53    
Minimum Humidity 21    
Precipitation  
Precipitation 0.00 in 0.03 in 0.16 in (1982)
Month to date precipitation 0.33  
Year to date precipitation 1.32  
Sea Level Pressure  
Sea Level Pressure 29.90 in    
Wind  
Wind Speed 20 mph (West)    
Max Wind Speed 31 mph    
Max Gust Speed 41 mph    
Visibility 10 miles    
Events      
T = Trace of Precipitation, MM = Missing Value Source: NWS Daily Summary

Daily Weather History Graph

Daily Weather History Graph

Search for Another Location

Airport or City:

Trip Planner

Search our weather history database for the weather conditions in past years. The results will help you decide how hot, cold, wet, or windy it might be!

Date:

Astronomy

Mar. 15, 2013 Rise Set
Actual Time 7:33 AM MDT 7:28 PM MDT
Civil Twilight 7:04 AM MDT 7:57 PM MDT
Nautical Twilight 6:29 AM MDT 8:32 PM MDT
Astronomical Twilight 5:54 AM MDT 9:07 PM MDT
Moon 9:12 AM MDT (3/15) No Moon Set
Length of Visible Light 12h 53m
Length of Day
11h 54m
Waxing Crescent, 16% of the Moon is Illuminated
Mar 15
Waxing Crescent
Mar 19
First Quarter
Mar 27
Full
Apr 2
Last Quarter
Apr 10
New

Hourly Weather History & Observations

Time (MDT) Temp. Windchill Dew Point Humidity Pressure Visibility Wind Dir Wind Speed Gust Speed Precip Events Conditions
12:53 AM 55.9 °F - 26.1 °F 32% 29.83 in 10.0 mi SW 29.9 mph 41.4 mph N/A   Clear
1:53 AM 55.9 °F - 26.1 °F 32% 29.82 in 10.0 mi SW 31.1 mph 40.3 mph N/A   Clear
2:53 AM 55.9 °F - 24.1 °F 29% 29.83 in 10.0 mi WSW 25.3 mph - N/A   Clear
3:53 AM 54.0 °F - 19.9 °F 26% 29.83 in 10.0 mi West 17.3 mph - N/A   Clear
4:53 AM 53.1 °F - 19.9 °F 27% 29.85 in 10.0 mi West 16.1 mph - N/A   Overcast
5:53 AM 50.0 °F - 21.9 °F 33% 29.87 in 10.0 mi WSW 13.8 mph - N/A   Overcast
6:53 AM 50.0 °F - 21.0 °F 32% 29.88 in 10.0 mi WSW 11.5 mph - N/A   Overcast
7:53 AM 51.1 °F - 19.0 °F 28% 29.88 in 10.0 mi West 19.6 mph - N/A   Scattered Clouds
8:53 AM 53.1 °F - 19.9 °F 27% 29.89 in 10.0 mi West 20.7 mph - N/A   Clear
9:53 AM 55.9 °F - 19.9 °F 25% 29.91 in 10.0 mi West 17.3 mph 25.3 mph N/A   Clear
10:53 AM 54.0 °F - 21.0 °F 28% 29.92 in 10.0 mi West 20.7 mph 28.8 mph N/A   Clear
11:53 AM 55.9 °F - 21.9 °F 27% 29.91 in 10.0 mi West 17.3 mph 26.5 mph N/A   Clear
12:53 PM 57.0 °F - 21.9 °F 26% 29.88 in 10.0 mi West 24.2 mph 32.2 mph N/A   Clear
1:53 PM 59.0 °F - 19.9 °F 22% 29.89 in 10.0 mi West 21.9 mph - N/A   Clear
2:53 PM 59.0 °F - 19.0 °F 21% 29.84 in 10.0 mi West 27.6 mph 38.0 mph N/A   Clear
3:53 PM 57.9 °F - 19.9 °F 23% 29.88 in 10.0 mi NW 20.7 mph 35.7 mph N/A   Clear
4:53 PM 55.0 °F - 23.0 °F 29% 29.89 in 10.0 mi NNW 16.1 mph 24.2 mph N/A   Scattered Clouds
5:53 PM 53.1 °F - 23.0 °F 31% 29.91 in 10.0 mi NNW 19.6 mph 24.2 mph N/A   Overcast
6:53 PM 51.1 °F - 23.0 °F 33% 29.92 in 10.0 mi NW 9.2 mph 18.4 mph N/A   Overcast
7:53 PM 46.9 °F - 21.9 °F 37% 29.95 in 10.0 mi NW 3.5 mph - N/A   Overcast
8:53 PM 44.1 °F 41.5 °F 21.9 °F 42% 29.97 in 10.0 mi West 4.6 mph - N/A   Mostly Cloudy
9:53 PM 42.1 °F - 21.9 °F 45% 29.99 in 10.0 mi Calm Calm - N/A   Scattered Clouds
10:53 PM 41.0 °F 36.4 °F 24.1 °F 51% 30.00 in 10.0 mi ESE 6.9 mph - N/A   Overcast
11:53 PM 39.9 °F 34.5 °F 24.1 °F 53% 30.00 in 10.0 mi SE 8.1 mph - N/A   Overcast